Time,TemperatureF,DewpointF,PressureIn,WindDirection,WindDirectionDegrees,WindSpeedMPH,WindSpeedGustMPH,Humidity,HourlyPrecipIn,Conditions,Clouds,dailyrainin,SoftwareType,DateUTC
2013-04-24 00:09:00,31.0,29.0,30.00,NW,315,4.0,-999.0,91,-99.99,,,0.00,weatherlink.com 1.10,2013-04-24 04:09:00,
2013-04-24 00:24:00,30.6,28.0,30.00,NW,320,4.0,-999.0,91,-99.99,,,0.00,weatherlink.com 1.10,2013-04-24 04:24:00,
2013-04-24 00:39:00,30.2,28.0,30.00,NW,320,2.0,-999.0,92,-99.99,,,0.00,weatherlink.com 1.10,2013-04-24 04:39:00,
2013-04-24 00:54:00,29.9,28.0,30.00,NW,321,3.0,-999.0,92,-99.99,,,0.00,weatherlink.com 1.10,2013-04-24 04:54:00,
2013-04-24 01:09:00,29.6,28.0,30.00,NW,312,2.0,-999.0,93,-99.99,,,0.00,weatherlink.com 1.10,2013-04-24 05:09:00,
2013-04-24 01:24:00,29.5,28.0,30.00,NW,315,3.0,-999.0,93,-99.99,,,0.00,weatherlink.com 1.10,2013-04-24 05:24:00,
2013-04-24 01:39:00,29.3,28.0,30.00,NW,314,4.0,-999.0,93,-99.99,,,0.00,weatherlink.com 1.10,2013-04-24 05:39:00,
2013-04-24 01:54:00,29.2,28.0,29.99,NW,325,3.0,-999.0,94,-99.99,,,0.00,weatherlink.com 1.10,2013-04-24 05:54:00,
2013-04-24 02:09:00,29.1,28.0,29.98,NW,315,7.0,-999.0,94,-99.99,,,0.00,weatherlink.com 1.10,2013-04-24 06:09:00,
2013-04-24 02:24:00,28.9,27.0,29.99,NW,313,4.0,-999.0,94,-99.99,,,0.00,weatherlink.com 1.10,2013-04-24 06:24:00,
2013-04-24 02:40:00,28.7,27.0,29.98,NW,315,4.0,-999.0,94,-99.99,,,0.00,weatherlink.com 1.10,2013-04-24 06:40:00,
2013-04-24 02:55:00,28.4,27.0,29.98,NW,318,5.0,-999.0,94,-99.99,,,0.00,weatherlink.com 1.10,2013-04-24 06:55:00,
2013-04-24 03:10:00,28.3,27.0,29.98,NW,317,4.0,-999.0,94,-99.99,,,0.00,weatherlink.com 1.10,2013-04-24 07:10:00,
2013-04-24 03:25:00,28.1,27.0,29.99,NW,309,3.0,-999.0,95,-99.99,,,0.00,weatherlink.com 1.10,2013-04-24 07:25:00,
2013-04-24 03:40:00,27.9,27.0,29.97,NW,309,2.0,-999.0,95,-99.99,,,0.00,weatherlink.com 1.10,2013-04-24 07:40:00,
2013-04-24 03:55:00,27.5,26.0,29.98,NW,318,2.0,-999.0,94,-99.99,,,0.00,weatherlink.com 1.10,2013-04-24 07:55:00,
2013-04-24 04:10:00,27.1,26.0,29.98,NW,317,5.0,-999.0,95,-99.99,,,0.00,weatherlink.com 1.10,2013-04-24 08:10:00,
2013-04-24 04:25:00,27.0,26.0,29.98,NW,317,0.0,-999.0,95,-99.99,,,0.00,weatherlink.com 1.10,2013-04-24 08:25:00,
2013-04-24 04:40:00,26.7,26.0,29.97,NW,317,1.0,-999.0,95,-99.99,,,0.00,weatherlink.com 1.10,2013-04-24 08:40:00,
2013-04-24 04:55:00,26.4,25.0,29.97,NW,317,0.0,-999.0,95,-99.99,,,0.00,weatherlink.com 1.10,2013-04-24 08:55:00,
2013-04-24 05:10:00,26.1,25.0,29.97,NW,317,0.0,-999.0,95,-99.99,,,0.00,weatherlink.com 1.10,2013-04-24 09:10:00,
2013-04-24 05:26:00,25.8,25.0,29.98,NW,317,0.0,-999.0,95,-99.99,,,0.00,weatherlink.com 1.10,2013-04-24 09:26:00,
2013-04-24 05:41:00,25.6,24.0,29.99,NW,317,0.0,-999.0,95,-99.99,,,0.00,weatherlink.com 1.10,2013-04-24 09:41:00,
2013-04-24 05:56:00,25.5,24.0,29.98,NW,317,0.0,-999.0,95,-99.99,,,0.00,weatherlink.com 1.10,2013-04-24 09:56:00,
2013-04-24 06:11:00,25.5,24.0,29.98,NW,317,0.0,-999.0,95,-99.99,,,0.00,weatherlink.com 1.10,2013-04-24 10:11:00,
2013-04-24 06:26:00,25.4,24.0,29.98,NW,317,0.0,-999.0,95,-99.99,,,0.00,weatherlink.com 1.10,2013-04-24 10:26:00,
2013-04-24 06:41:00,25.0,24.0,29.98,NW,317,0.0,-999.0,95,-99.99,,,0.00,weatherlink.com 1.10,2013-04-24 10:41:00,
2013-04-24 06:56:00,24.6,23.0,29.98,NW,317,0.0,-999.0,95,-99.99,,,0.00,weatherlink.com 1.10,2013-04-24 10:56:00,
2013-04-24 07:11:00,24.5,23.0,29.98,NW,317,0.0,-999.0,95,-99.99,,,0.00,weatherlink.com 1.10,2013-04-24 11:11:00,
2013-04-24 07:26:00,24.6,23.0,29.99,NW,317,0.0,-999.0,95,-99.99,,,0.00,weatherlink.com 1.10,2013-04-24 11:26:00,
2013-04-24 07:41:00,24.5,23.0,29.99,NW,317,0.0,-999.0,94,-99.99,,,0.00,weatherlink.com 1.10,2013-04-24 11:41:00,
2013-04-24 07:56:00,24.6,23.0,29.98,NW,317,0.0,-999.0,94,-99.99,,,0.00,weatherlink.com 1.10,2013-04-24 11:56:00,
2013-04-24 08:11:00,24.9,24.0,29.98,NW,317,0.0,-999.0,94,-99.99,,,0.00,weatherlink.com 1.10,2013-04-24 12:11:00,
2013-04-24 08:27:00,25.7,24.0,29.99,NW,317,0.0,-999.0,94,-99.99,,,0.00,weatherlink.com 1.10,2013-04-24 12:27:00,
2013-04-24 08:42:00,28.1,26.0,29.99,NW,317,0.0,-999.0,91,-99.99,,,0.00,weatherlink.com 1.10,2013-04-24 12:42:00,
2013-04-24 08:57:00,27.3,25.0,29.99,NW,317,0.0,-999.0,90,-99.99,,,0.01,weatherlink.com 1.10,2013-04-24 12:57:00,
2013-04-24 09:12:00,31.6,28.0,29.99,NW,317,0.0,-999.0,85,-99.99,,,0.01,weatherlink.com 1.10,2013-04-24 13:12:00,
2013-04-24 09:27:00,33.8,28.0,29.99,NW,317,0.0,-999.0,78,-99.99,,,0.01,weatherlink.com 1.10,2013-04-24 13:27:00,
2013-04-24 09:42:00,34.6,27.0,29.99,NW,317,0.0,-999.0,74,-99.99,,,0.01,weatherlink.com 1.10,2013-04-24 13:42:00,
2013-04-24 09:57:00,35.9,26.0,29.99,NW,317,0.0,-999.0,68,-99.99,,,0.01,weatherlink.com 1.10,2013-04-24 13:57:00,
2013-04-24 10:12:00,36.0,26.0,29.99,NW,317,0.0,-999.0,68,-99.99,,,0.01,weatherlink.com 1.10,2013-04-24 14:12:00,
2013-04-24 10:27:00,37.3,26.0,29.99,NW,317,0.0,-999.0,65,-99.99,,,0.01,weatherlink.com 1.10,2013-04-24 14:27:00,
2013-04-24 10:42:00,38.3,25.0,29.99,NW,317,0.0,-999.0,58,-99.99,,,0.01,weatherlink.com 1.10,2013-04-24 14:42:00,
2013-04-24 10:58:00,37.9,24.0,29.99,NW,317,0.0,-999.0,58,-99.99,,,0.01,weatherlink.com 1.10,2013-04-24 14:58:00,
2013-04-24 11:13:00,37.2,27.0,29.98,North,5,0.0,-999.0,68,-99.99,,,0.01,weatherlink.com 1.10,2013-04-24 15:13:00,
2013-04-24 11:28:00,37.3,26.0,29.98,East,88,2.0,-999.0,64,-99.99,,,0.01,weatherlink.com 1.10,2013-04-24 15:28:00,
2013-04-24 11:43:00,39.1,24.0,29.97,East,87,0.0,-999.0,55,-99.99,,,0.01,weatherlink.com 1.10,2013-04-24 15:43:00,
2013-04-24 11:58:00,41.2,24.0,29.97,West,267,7.0,-999.0,50,-99.99,,,0.01,weatherlink.com 1.10,2013-04-24 15:58:00,
2013-04-24 12:13:00,42.0,23.0,29.96,WSW,257,2.0,-999.0,48,-99.99,,,0.01,weatherlink.com 1.10,2013-04-24 16:13:00,
2013-04-24 12:28:00,41.9,22.0,29.96,NW,312,0.0,-999.0,45,-99.99,,,0.01,weatherlink.com 1.10,2013-04-24 16:28:00,
2013-04-24 12:43:00,42.8,23.0,29.96,NNW,341,5.0,-999.0,45,-99.99,,,0.01,weatherlink.com 1.10,2013-04-24 16:43:00,
2013-04-24 12:58:00,41.0,19.0,29.95,NNW,343,0.0,-999.0,42,-99.99,,,0.01,weatherlink.com 1.10,2013-04-24 16:58:00,
2013-04-24 13:13:00,42.4,22.0,29.95,NNW,348,8.0,-999.0,45,-99.99,,,0.01,weatherlink.com 1.10,2013-04-24 17:13:00,
2013-04-24 13:29:00,42.0,19.0,29.95,North,350,0.0,-999.0,39,-99.99,,,0.01,weatherlink.com 1.10,2013-04-24 17:29:00,
2013-04-24 13:44:00,41.8,22.0,29.94,East,84,6.0,-999.0,46,-99.99,,,0.01,weatherlink.com 1.10,2013-04-24 17:44:00,
2013-04-24 13:59:00,40.8,21.0,29.94,East,99,4.0,-999.0,45,-99.99,,,0.01,weatherlink.com 1.10,2013-04-24 17:59:00,
2013-04-24 14:14:00,41.7,19.0,29.93,ENE,76,6.0,-999.0,41,-99.99,,,0.01,weatherlink.com 1.10,2013-04-24 18:14:00,
2013-04-24 14:29:00,42.0,21.0,29.93,NE,40,3.0,-999.0,44,-99.99,,,0.01,weatherlink.com 1.10,2013-04-24 18:29:00,
2013-04-24 14:44:00,41.3,21.0,29.93,ENE,64,6.0,-999.0,44,-99.99,,,0.01,weatherlink.com 1.10,2013-04-24 18:44:00,
2013-04-24 14:59:00,40.6,22.0,29.93,NE,44,3.0,-999.0,48,-99.99,,,0.01,weatherlink.com 1.10,2013-04-24 18:59:00,
2013-04-24 15:14:00,42.0,21.0,29.93,NE,49,3.0,-999.0,44,-99.99,,,0.01,weatherlink.com 1.10,2013-04-24 19:14:00,
2013-04-24 15:29:00,41.7,21.0,29.93,ENE,63,0.0,-999.0,44,-99.99,,,0.01,weatherlink.com 1.10,2013-04-24 19:29:00,
2013-04-24 15:44:00,42.2,19.0,29.92,NE,51,1.0,-999.0,40,-99.99,,,0.01,weatherlink.com 1.10,2013-04-24 19:44:00,
2013-04-24 15:59:00,42.8,20.0,29.92,NNE,26,4.0,-999.0,40,-99.99,,,0.01,weatherlink.com 1.10,2013-04-24 19:59:00,
2013-04-24 16:14:00,43.1,21.0,29.92,NNE,17,4.0,-999.0,41,-99.99,,,0.01,weatherlink.com 1.10,2013-04-24 20:14:00,
2013-04-24 16:29:00,42.7,20.0,29.92,NE,52,4.0,-999.0,41,-99.99,,,0.01,weatherlink.com 1.10,2013-04-24 20:29:00,
2013-04-24 16:45:00,43.1,20.0,29.92,NNE,32,4.0,-999.0,40,-99.99,,,0.01,weatherlink.com 1.10,2013-04-24 20:45:00,
2013-04-24 17:00:00,43.3,20.0,29.92,NNE,22,4.0,-999.0,39,-99.99,,,0.01,weatherlink.com 1.10,2013-04-24 21:00:00,
2013-04-24 17:15:00,42.6,20.0,29.92,NNE,26,5.0,-999.0,40,-99.99,,,0.01,weatherlink.com 1.10,2013-04-24 21:15:00,
2013-04-24 17:30:00,42.5,20.0,29.93,NNE,26,3.0,-999.0,41,-99.99,,,0.01,weatherlink.com 1.10,2013-04-24 21:30:00,
2013-04-24 17:45:00,42.4,21.0,29.93,NE,45,0.0,-999.0,42,-99.99,,,0.01,weatherlink.com 1.10,2013-04-24 21:45:00,
2013-04-24 18:00:00,42.6,20.0,29.93,North,355,4.0,-999.0,41,-99.99,,,0.01,weatherlink.com 1.10,2013-04-24 22:00:00,
2013-04-24 18:15:00,41.9,19.0,29.93,NNE,18,3.0,-999.0,40,-99.99,,,0.01,weatherlink.com 1.10,2013-04-24 22:15:00,
2013-04-24 18:30:00,41.7,21.0,29.94,NNE,24,0.0,-999.0,43,-99.99,,,0.01,weatherlink.com 1.10,2013-04-24 22:30:00,
2013-04-24 18:45:00,41.4,20.0,29.93,NE,38,0.0,-999.0,42,-99.99,,,0.01,weatherlink.com 1.10,2013-04-24 22:45:00,
2013-04-24 19:00:00,41.3,20.0,29.93,NE,36,0.0,-999.0,42,-99.99,,,0.01,weatherlink.com 1.10,2013-04-24 23:00:00,
2013-04-24 19:15:00,40.7,20.0,29.93,NE,39,3.0,-999.0,44,-99.99,,,0.01,weatherlink.com 1.10,2013-04-24 23:15:00,
2013-04-24 19:30:00,40.2,19.0,29.93,ENE,60,0.0,-999.0,43,-99.99,,,0.01,weatherlink.com 1.10,2013-04-24 23:30:00,
2013-04-24 19:45:00,39.8,19.0,29.93,NE,50,0.0,-999.0,43,-99.99,,,0.01,weatherlink.com 1.10,2013-04-24 23:45:00,
2013-04-24 20:01:00,39.5,18.0,29.93,NE,34,3.0,-999.0,42,-99.99,,,0.01,weatherlink.com 1.10,2013-04-25 00:01:00,
2013-04-24 20:16:00,39.1,18.0,29.93,NNE,33,0.0,-999.0,43,-99.99,,,0.01,weatherlink.com 1.10,2013-04-25 00:16:00,
2013-04-24 20:31:00,38.7,18.0,29.94,NNE,33,0.0,-999.0,43,-99.99,,,0.01,weatherlink.com 1.10,2013-04-25 00:31:00,
2013-04-24 20:46:00,38.3,18.0,29.94,NNE,33,0.0,-999.0,44,-99.99,,,0.01,weatherlink.com 1.10,2013-04-25 00:46:00,
2013-04-24 21:01:00,37.0,18.0,29.94,NE,34,0.0,-999.0,47,-99.99,,,0.01,weatherlink.com 1.10,2013-04-25 01:01:00,
2013-04-24 21:16:00,36.3,21.0,29.94,ESE,107,5.0,-999.0,54,-99.99,,,0.01,weatherlink.com 1.10,2013-04-25 01:16:00,
2013-04-24 21:31:00,34.8,20.0,29.94,ESE,113,0.0,-999.0,55,-99.99,,,0.01,weatherlink.com 1.10,2013-04-25 01:31:00,
2013-04-24 21:46:00,34.9,20.0,29.94,ESE,113,0.0,-999.0,54,-99.99,,,0.01,weatherlink.com 1.10,2013-04-25 01:46:00,
2013-04-24 22:01:00,34.5,21.0,29.94,SE,140,8.0,-999.0,59,-99.99,,,0.01,weatherlink.com 1.10,2013-04-25 02:01:00,
2013-04-24 22:16:00,33.5,24.0,29.94,SSE,162,7.0,-999.0,67,-99.99,,,0.01,weatherlink.com 1.10,2013-04-25 02:16:00,
2013-04-24 22:31:00,33.1,24.0,29.95,SSE,155,4.0,-999.0,70,-99.99,,,0.01,weatherlink.com 1.10,2013-04-25 02:31:00,
2013-04-24 22:46:00,33.7,26.0,29.95,SSW,199,3.0,-999.0,72,-99.99,,,0.01,weatherlink.com 1.10,2013-04-25 02:46:00,
2013-04-24 23:01:00,34.3,27.0,29.95,SSW,196,0.0,-999.0,74,-99.99,,,0.01,weatherlink.com 1.10,2013-04-25 03:01:00,
2013-04-24 23:17:00,33.8,27.0,29.94,SSE,164,5.0,-999.0,76,-99.99,,,0.01,weatherlink.com 1.10,2013-04-25 03:17:00,
2013-04-24 23:32:00,33.4,28.0,29.94,SSE,163,0.0,-999.0,79,-99.99,,,0.01,weatherlink.com 1.10,2013-04-25 03:32:00,
2013-04-24 23:47:00,32.9,27.0,29.94,SSE,161,5.0,-999.0,80,-99.99,,,0.01,weatherlink.com 1.10,2013-04-25 03:47:00,